Location: Bad Rothenbrunn
(47.2167°N, 11.2167°E)
Time: 16:42:59
(UTC+00:00)

CZ-2C R/B - Pass Details

Date: 03 March 2021
Orbit: 703 x 908 km, 98.1° (Epoch: 19 April)

Event Time Altitude Azimuth Distance (km) Brightness Sun altitude
Rises 17:20:28 0° 165° (SSE) 3,509 6.3 -3.7°
Reaches altitude 10° 17:22:54 10° 166° (SSE) 2,559 5.6 -4.1°
Maximum altitude 17:28:39 87° 255° (WSW) 879 3.4 -5.1°
Drops below altitude 10° 17:34:11 10° 346° (NNW) 2,469 5.8 -6.0°
Sets 17:36:30 0° 347° (NNW) 3,378 6.5 -6.4°
